Preview of NWS' New Version of Forecast
This preview is not operational and should not be used for support decisions.

Regional Weather Roundup (RWR)

Issued by National Weather Service (NWS)

                            
000
ASUS45 KABQ 201301
RWRNM 
NEW MEXICO REGIONAL WEATHER ROUNDUP
NATIONAL WEATHER SERVICE ALBUQUERQUE NM
700 AM MDT TUE AUG 20 2019

NOTE: "FAIR" MEANS FEW OR NO CLOUDS BELOW 12,000 FEET AGL WITH NO
       SIGNIFICANT WEATHER OR OBSTRUCTIONS TO VISION.

      THIS PRODUCT IS RELEASED AS TWO VERSIONS.  ONE VERSION NEAR
      THE TOP OF THE HOUR CONTAINING PRELIMINARY DATA FROM ALBUQUERQUE
      AND OTHER STATIONS.  A FINAL VERSION WITH ADDITIONAL DATA IS 
      ISSUED ABOUT 10 MINUTES AFTER THE HOUR.
 
NMZ501-503-504-510>518-201400-
NORTHWEST PLATEAU/NORTHCENTRAL MOUNTAINS
  
CITY           SKY/WX    TMP DP  RH WIND       PRES   REMARKS
FARMINGTON     FAIR      59  33  37 E8        30.21R                  
LOS ALAMOS       N/A     68  41  38 S7        30.35R                  
SANTA FE       FAIR      61  44  53 N5        30.28R                  
TAOS             N/A     53  36  52 N7        30.37R                  
ANGEL FIRE     FAIR      36  33  91 CALM      30.48R                  

$$
NMZ402-403-502-505>509-201400-
WESTCENTRAL MOUNTAINS/SOUTHWEST MOUNTAINS
  
CITY           SKY/WX    TMP DP  RH WIND       PRES   REMARKS
GALLUP         FAIR      54  25  32 NE3       30.30R                  
GRANTS         FAIR      52  32  46 N3        30.32R                  
SILVER CITY    CLOUDY    63  42  47 N8        30.19R                  

$$
NMZ407-409-411-412-201400-
SOUTHERN DESERTS
  
CITY           SKY/WX    TMP DP  RH WIND       PRES   REMARKS
DEMING         FAIR      70  52  52 NE6       30.11R                  
LAS CRUCES     FAIR      71  50  47 CALM      30.13R                  
HOLLOMAN AFB   CLOUDY    75  51  43 E3        30.14R                  
ALAMOGORDO     CLOUDY    77  48  36 N5        30.13R                  
T OR C         FAIR      70  45  40 W7        30.15R                  

$$
NMZ519>523-201400-
CENTRAL VALLEYS/CENTRAL HIGHLANDS
  
CITY           SKY/WX    TMP DP  RH WIND       PRES   REMARKS
ALBUQUERQUE    FAIR      71  44  37 N6        30.20R                  
DOUBLE EAGLE   PTCLDY    57  43  58 CALM      30.24R                  
CLINES CORNERS FAIR      62  44  51 E6        30.36R                  
BELEN          FAIR      63  44  50 N3        30.20R                  
SOCORRO        FAIR      70  44  39 S7        30.16R                  

$$
NMZ524>526-539-540-201400-
SOUTHCENTRAL MOUNTAINS
  
CITY           SKY/WX    TMP DP  RH WIND       PRES   REMARKS
RUIDOSO        CLOUDY    66  48  52 W5        30.35R                  

$$
NMZ527>531-201400-
NORTHEAST HIGHLANDS/NORTHEAST PLAINS
  
CITY           SKY/WX    TMP DP  RH WIND       PRES   REMARKS
LAS VEGAS      FAIR      58  45  62 S5        30.33R                  
RATON          FAIR      59  46  62 N8        30.28R                  
CLAYTON        FAIR      69  50  50 SW12      30.17R                  

$$
NMZ532>537-201400-
EASTCENTRAL PLAINS
  
CITY           SKY/WX    TMP DP  RH WIND       PRES   REMARKS
TUCUMCARI      FAIR      73  55  53 SW6       30.13R                  
CANNON AFB     DRIZZLE   74  59  60 SW5       30.18R                  
CLOVIS AIRPORT FAIR      75  57  53 SW12      30.17R                  

$$
NMZ028-029-538-201400-
SOUTHEAST PLAINS
  
CITY           SKY/WX    TMP DP  RH WIND       PRES   REMARKS
ROSWELL        FAIR      79  58  48 SE5       30.11R                  
ARTESIA        FAIR      77  61  57 SE9       30.12R                  
CARLSBAD       FAIR      73  58  59 S5        30.08R                  
HOBBS          CLEAR     75  59  57 S8        30.14R                  


$$